Regional Weather Roundup
Issued by NWS

Home | Current Version | Previous Version | Text Only | Print | Product List | Glossary Off
Versions: 1 2 3 4 5 6 7 8 9 10 11 12 13 14 15 16 17 18 19 20 21 22 23 24 25 26 27 28 29 30 31 32 33 34 35 36 37 38 39 40 41 42 43 44 45 46 47 48 49 50

000
ASUS43 KLSX 210657
RWRMO

WEATHER SUMMARY FOR MISSOURI
NATIONAL WEATHER SERVICE SPRINGFIELD MO
100 AM CST TUE FEB 21 2017

NOTE: "FAIR" INDICATES FEW OR NO CLOUDS BELOW 12,000 FEET WITH NO
       SIGNIFICANT WEATHER AND/OR OBSTRUCTIONS TO VISIBILITY.
       CURRENT SKY AND/OR WEATHER CONDITIONS ARE NOT AVAILABLE FOR
       CHILLICOTHE AND FARMINGTON.

MOZ001>031-035>038-043-044-053-054-210800-
...NORTHERN AND WESTERN MISSOURI...

CITY           SKY/WX    TMP DP  RH WIND       PRES   REMARKS
KANSAS CTY INT CLOUDY    53  50  89 N8        29.92R
LEE`S SUMMIT   MOCLDY    56  52  86 CALM      29.92S
ST JOSEPH      PTCLDY    50  46  86 N9        29.93R
CHILLICOTHE      N/A     57  51  80 CALM      29.92S

$$
MOZ066>068-077>081-088>096-101>105-210800-
...SOUTHWEST MISSOURI...

CITY           SKY/WX    TMP DP  RH WIND       PRES   REMARKS
SPRINGFIELD    LGT RAIN  56  54  93 CALM      29.93R FOG
JOPLIN         PTCLDY    55  53  93 CALM      29.93R

$$
MOZ032>034-039>042-045>050-055>058-069>072-210800-
...CENTRAL MISSOURI...

CITY           SKY/WX    TMP DP  RH WIND       PRES   REMARKS
COLUMBIA       NOT AVBL
JEFFERSON CITY LGT RAIN  58  58 100 SE3       29.92F VSB 3/4
ROLLA          LGT RAIN  58  58 100 SE6       29.94R
SEDALIA        CLOUDY    59  55  87 SW5       29.93F
WARRENSBURG    CLOUDY    54  52  94 CALM      29.92S

$$
MOZ051-052-059>065-210800-
...EAST CENTRAL MISSOURI...

CITY           SKY/WX    TMP DP  RH WIND       PRES   REMARKS
ST LOUIS INTL  HVY RAIN  63  58  83 W10       29.94R

$$
MOZ072>076-082>087-097>100-106>115-210800-
...SOUTH CENTRAL AND SOUTHEAST MISSOURI...

CITY           SKY/WX    TMP DP  RH WIND       PRES   REMARKS
CAPE GIRARDEAU CLOUDY    62  50  64 SE9       29.92F
POPLAR BLUFF   CLOUDY    59  56  89 W6        29.92S
WEST PLAINS    LGT RAIN  58  56  93 NE7       29.96S

$$



USA.gov is the U.S. government's official web portal to all federal, state and local government web resources and services.